Regional Weather Roundup
Issued by NWS

Home | Current Version | Previous Version | Graphics & Text | Print | Product List | Glossary On
Versions: 1 2 3 4 5 6 7 8 9 10 11 12 13 14 15 16 17 18 19 20 21 22 23 24 25 26 27 28 29 30 31 32 33 34 35 36 37 38 39 40 41 42 43 44 45 46 47 48 49 50
000
ASUS43 KMKX 181111
RWRWI

WISCONSIN REGIONAL WEATHER ROUNDUP
NATIONAL WEATHER SERVICE MILWAUKEE/SULLIVAN WI
600 AM CDT FRI AUG 18 2017

NOTE: "FAIR" INDICATES FEW OR NO CLOUDS BELOW 12,000 FEET WITH NO
SIGNIFICANT WEATHER AND/OR OBSTRUCTIONS TO VISIBILITY.

WIZ001-002-006>008-014>016-023>028-181200-
NORTHWEST WISCONSIN

CITY           SKY/WX    TMP DP  RH WIND       PRES   REMARKS
SUPERIOR ARPT    N/A     56  55  99 W5        29.83R
ASHLAND        CLOUDY    61  58  90 W6        29.80R
HAYWARD        CLOUDY    58  56  93 CALM      29.83R
SIREN          CLEAR     54  53  97 CALM      29.86R FOG
CUMBERLAND     CLEAR     54  52  94 W3        29.86R
RICE LAKE      CLEAR     56  55  95 NW3       29.86R
CHETEK         CLEAR     57  56  97 NW6       29.84S
LADYSMITH      CLOUDY    61  58  90 W10       29.84R
EAU CLAIRE     CLEAR     58  57  97 VRB3      29.83R
MENOMONIE      CLEAR     59  57  94 W7        29.85S
NEW RICHMOND   CLOUDY    56  56  99 CALM      29.87S FOG
OSCEOLA          N/A     54  54 100 CALM      29.89S FOG
$$

WIZ003>005-009-010-017-018-181200-
NORTH CENTRAL WISCONSIN

CITY           SKY/WX    TMP DP  RH WIND       PRES   REMARKS
MANITOWISH WTR CLOUDY    58  58 100 NW9       29.77S
ARBOR VITAE    CLOUDY    59  58  96 NW13G21   29.77R
WOODRUFF       CLOUDY    59  58  96 NW13G21   29.77R
RHINELANDER    LGT RAIN  60  59  96 NW7       29.77R
EAGLE RIVER    CLOUDY    59  58  98 NW10G18   29.75R
LAND O LAKES   LGT RAIN  59  58  96 NW9G16    29.76S
PHILLIPS       CLOUDY    59  59  99 NW5       29.78S
TOMAHAWK         N/A     59  57  91 NW6G16    29.78R
MEDFORD        CLOUDY    60  57  92 W8        29.80R
MERRILL        CLOUDY    61  61 100 NW10      29.77S
$$

WIZ029-030-035-036-043>047-181200-
CENTRAL WISCONSIN

CITY           SKY/WX    TMP DP  RH WIND       PRES   REMARKS
WAUSAU         CLOUDY    62  58  86 NW13      29.75S
MOSINEE        CLOUDY    63  59  88 W12       29.78R
MARSHFIELD     CLOUDY    61  57  87 NW10      29.79R
STEVENS POINT  CLOUDY    61  59  94 W7        29.78R
WAUPACA        CLOUDY    67  59  75 W9        29.76R
WAUTOMA        CLOUDY    64  60  87 W12       29.78R
WISC RAPIDS    CLOUDY    63  59  87 NW9       29.80R
CAMP DOUGLAS   CLOUDY    64  59  83 NW10      29.81R
$$

WIZ011>013-019>022-031-037>040-048>050-181200-
NORTHEAST WISCONSIN

CITY           SKY/WX    TMP DP  RH WIND       PRES   REMARKS
ANTIGO         CLOUDY    59  59  97 NW13G18   29.74S
SHAWANO        CLOUDY    65  60  81 W8        29.70S
OCONTO         CLOUDY    63  59  87 W9G17     29.67R
STURGEON BAY   CLOUDY    65  61  87 W13       29.67R
GREEN BAY      MOCLDY    63  62  97 W13       29.70R
MANITOWOC      MOCLDY    65  58  78 W12       29.71R
APPLETON       MOCLDY    64  55  72 W16G23    29.73R
CLINTONVILLE   CLOUDY    64  55  72 NW13G20   29.71F
OSHKOSH        CLOUDY    65  60  84 W12G18    29.74S
$$

WIZ032>034-041-042-053>061-181200-
SOUTHWEST WISCONSIN

CITY           SKY/WX    TMP DP  RH WIND       PRES   REMARKS
LA CROSSE      MOCLDY    67  61  81 NW10      29.83S
SPARTA         CLEAR     59  58  94 CALM      29.84S
VIROQUA        CLOUDY    63  62  99 NW12      29.84S
BOSCOBEL       CLEAR     63  61  93 S5        29.83S
PRAIRIE DU CHI CLEAR     62  58  86 NW5       29.84S
PLATTEVILLE    CLEAR     60  60 100 W6        29.85S
$$

WIZ056-057-062-063-064-067-068-181200-
SOUTH CENTRAL WISCONSIN

CITY           SKY/WX    TMP DP  RH WIND       PRES   REMARKS
REEDSBURG      CLOUDY    64  60  88 W6        29.81S
BARABOO/DELLS  CLOUDY    64  57  78 NW12G18   29.80F
LONE ROCK      CLOUDY    64  63  96 W6        29.81S
MINERAL POINT  PTCLDY    63  63 100 W7        29.83F
MADISON        CLOUDY    66  59  78 NW10      29.80R
MIDDLETON      CLOUDY    66  61  85 NW7G18    29.82R
WATERTOWN      CLOUDY    65  60  84 W17       29.79R
MONROE         CLEAR     63  61  94 W5        29.83S
JANESVILLE     MOCLDY    64  64 100 NW6       29.81R
$$

WIZ051-052-058>065-066-070>072-181200-
SOUTHEAST WISCONSIN

CITY           SKY/WX    TMP DP  RH WIND       PRES   REMARKS
MILWAUKEE      CLOUDY    69  60  73 W13G23    29.76R
WAUKESHA       CLOUDY    64  57  77 W17G23    29.78R
MILWAUKEE/TIMM CLOUDY    64  55  72 W13       29.77R
RACINE         CLOUDY    68  61  78 W10       29.79R
KENOSHA        CLOUDY    65  61  87 W9        29.79R
FOND DU LAC    CLOUDY    66  59  78 W14G22    29.76R
SHEBOYGAN      CLOUDY    66  62  87 W7G20     29.73R
WEST BEND      CLOUDY    64  61  88 W10G18    29.77R
JUNEAU         CLOUDY    64  59  83 W12G18    29.79R
$$

LSZ147-162-181200-
LAKE SUPERIOR

STATION/POSITION TIME  TEMP    WIND        PRES    WAVE
                       AIR SEA DIR/SP/G            HT/PER
                 (UTC) (F)     (DEG/KT/KT) (MB)    (FT/S)
W MID LAKE BUOY  1050   61 59  290/ 10/ 12 1007.0R   2/ 6
DEVILS ISLAND    1100   62     300/  8/  8 1008.4R
SAXON HARBOR     1040   64     330/  7/ 12 1008.1S
$$

LMZ867-665-643>646-181200-
LAKE MICHIGAN

STATION/POSITION TIME  TEMP    WIND        PRES    WAVE
                       AIR SEA DIR/SP/G            HT/PER
                 (UTC) (F)     (DEG/KT/KT) (MB)    (FT/S)
S GREEN BAY BUOY 1100   67 71  260/ 16/ 19 1004.8
N MID LAKE BUOY  1050   65 67  280/ 23/ 27 1001.9R   4/ 5
NORTHPORT PIER   1040   65     290/  8/ 13 1003.0R
KEWAUNEE LAKESHO 1048   65     280/ 11/ 15 1004.3R
SHEBOYGAN LAKESH 1100   67     280/ 17/ 20 1006.1R
PORT WASHINGTON  0940   68     280/  7/ 12 1007.5R
ATWATER BUOY     1009   69 70  270/ 14/ 21 1007.7
MILWAUKEE LAKESH 1050   68     280/ 11/ 14   N/A
S MID LAKE BUOY  1050   69 71  320/ 17/ 21 1007.2R   4/ 5
KENOSHA   LAKESH 1100   67     260/  9/ 11 1008.5
$$

TC  - TEMPERATURE IN CELSIUS
VSB - VISIBILITY IN STATUTE MILES
WCI - WIND CHILL INDEX
HX  - HEAT INDEX





USA.gov is the U.S. government's official web portal to all federal, state and local government web resources and services.